Flag for Niger Weather past 2 weeks in Niamey, Niger

Now
82 °F

Passing clouds.


Feels Like: 88 °F
Forecast: 77 / 90 °F
Wind: 3 mph from North

Location: Niamey-Aero

Current Time: Aug 3, 2015 at 10:57:27 PM

Latest Report: Aug 3, 2015 at 10:00 PM


Visibility: N/A

Pressure: 29.92 "Hg

Humidity: 74%

Dew point: 73 °F

Location of NiameyLocation

Historic Weather in Niamey — Graph

°F

Niamey temperature yesterday

Maximum temperature yesterday: 82 °F (at 12:00 AM)
Minimum temperature yesterday: 72 °F (at 4:00 AM)
Average temperature yesterday: 77 °F

Past Weeks' High & Low Weather Summary

 TemperatureHumidityPressure
High97 °F (Jul 24, 3:00 PM)100% (Jul 20, 12:00 AM)30.01 "Hg (Jul 20, 12:00 AM)
Low72 °F (Jul 20, 12:00 AM)32% (Jul 24, 5:00 PM)29.71 "Hg (Jul 20, 5:00 AM)
Average83 °F68%29.90 "Hg
* Reported Jul 19 9:00 PM — Aug 3 9:00 PM, Niamey, Weather by CustomWeather, © 2015

Note: Actual official high and low records may vary slightly from our data, if they occured in-between our weather recording intervals... More about our weather records

Advertising

Niamey weather history for previous 24 hours

 ConditionsComfort  
Time TempWeatherWind HumidityBarometerVisibility
9:00 PM
Mon, Aug 3
82 °FPassing clouds.7 mph66%29.89 "HgN/A
8:00 PM88 °FThunderstorms. Passing clouds.5 mph59%29.89 "HgN/A
7:00 PM90 °FScattered clouds.2 mph52%29.86 "HgN/A
6:00 PM91 °FScattered clouds.2 mph46%29.86 "HgN/A
5:00 PM91 °FScattered clouds.3 mph46%29.86 "HgN/A
4:00 PM91 °FPartly sunny.3 mph52%29.89 "HgN/A
3:00 PM91 °FPartly sunny.6 mph49%29.89 "HgN/A
2:00 PM90 °FPartly sunny.6 mph52%29.95 "HgN/A
1:00 PM88 °FPartly sunny.7 mph62%29.95 "HgN/A
12:00 PM86 °FScattered clouds.7 mph66%29.95 "HgN/A
11:00 AM84 °FScattered clouds.5 mph70%29.98 "HgN/A
10:00 AM82 °FPassing clouds.3 mph74%29.98 "HgN/A
9:00 AM81 °FPassing clouds.2 mph79%29.98 "Hg4 mi
8:00 AM77 °FPassing clouds.1 mph89%29.98 "HgN/A
7:00 AM75 °FSunny.1 mph100%29.95 "Hg10 mi
6:00 AM75 °FClear.2 mph100%29.92 "Hg10 mi
5:00 AM75 °FClear.1 mph100%29.89 "Hg10 mi
4:00 AM75 °FClear.No wind100%29.89 "Hg10 mi
3:00 AM75 °FClear.2 mph100%29.89 "Hg10 mi
2:00 AM77 °FClear.1 mph100%29.92 "Hg10 mi
1:00 AM77 °FClear.No wind100%29.92 "Hg10 mi
12:00 AM77 °FClear.1 mph94%29.95 "Hg10 mi
11:00 PM
Sun, Aug 2
77 °FClear.1 mph94%29.92 "Hg10 mi
10:00 PM77 °FPassing clouds.5 mph94%29.89 "HgN/A
Weather by CustomWeather, © 2015

See weather overviewHow to use our weather pages